Starlink 5190

operational
NORAD ID: 54092 Int'l Des: 2022-136 Owner: SPXS Country: US Constellation: starlink
LEOCIRCULAR

About Starlink 5190

Description loading...

Live Position

Loading 3D Globe...

Upcoming Passes

Altitude History

Altitude vs Time

uPlot chart will show altitude changes over time

Two-Line Element Set

1 54092U 22136AT 26095.15001315 .00091300 00000-0 69919-3 0 9992
2 54092 53.1777 43.9461 0004046 75.3285 284.8182 15.71391989193383
Epoch: Apr 5, 2026 • Age: 10 hours

Current Status

Altitude 358.9 km
Velocity 7.69 km/s
Sub-Earth Point -10.77°S, 167.5°W
Launch Date Oct 20, 2022
Age 3.4 years
Type internet

Technical Details

Classification Payload
Mass 305.00 kg
Dry Mass 290.00 kg
Total Mass 305.00 kg
Length 0.20 m
Diameter 2.80 m
Span 9.00 m
Shape Box + pan
Manufacturer SPXS
Bus Type Starlink
Phase Status In Orbit
Owner/State SPXS/US

Large Constellations

Loading constellations...